FW0420 Weather Reports


Display with metric or nautical units.
time (UTC)temp
F
wind
direction
speed
MPH
gust
MPH
rain 1hr
in
rain 24hr
in
rain mn
in
humidity
%
barometer
mb
20260502163054 43 360 6.0 13.0 0.00 0.00 0.00 50 1016.5
20260502161552 42 360 1.0 10.0 0.00 0.00 0.00 50 1016.5
20260502151557 42 360 7.0 12.0 0.00 0.00 0.00 54 1016.6
20260502123024 37 341 6.0 13.0 0.00 0.00 0.00 76 1016.6
20260502121512 36 326 7.0 13.0 0.00 0.00 0.00 78 1016.7
20260502114506 35 339 8.0 12.0 0.00 0.00 0.00 85 1016.5
20260502113002 34 269 3.0 6.0 0.00 0.00 0.00 89 1016.4
20260502111603 34 324 2.0 6.0 0.00 0.00 0.00 90 1016.4
20260502110058 33 310 2.0 5.0 0.00 0.00 0.00 90 1016.3
20260502104556 32 44 1.0 3.0 0.00 0.00 0.00 91 1016.2
20260502103104 32 94 0.0 2.0 0.00 0.00 0.00 92 1016.2
20260502101608 31 94 0.0 1.0 0.00 0.00 0.00 91 1016.0
20260502100118 32 95 0.0 0.0 0.00 0.00 0.00 90 1016.0
20260502070030 36 100 0.0 0.0 0.00 0.00 0.00 85 1015.5
20260502064529 36 101 0.0 2.0 0.00 0.00 0.00 85 1015.6
20260502063028 36 101 1.0 3.0 0.00 0.00 0.00 84 1015.7
20260502061533 36 99 1.0 3.0 0.00 0.00 0.00 83 1015.8
20260502060023 36 104 1.0 3.0 0.00 0.00 0.00 82 1016.0
20260502054522 37 101 0.0 2.0 0.00 0.00 0.00 81 1016.2
20260502053021 36 102 2.0 4.0 0.00 0.00 0.00 81 1016.1
20260502051523 37 83 3.0 6.0 0.00 0.00 0.00 81 1016.0
20260502050015 37 85 2.0 7.0 0.00 0.00 0.00 81 1015.7
20260502044513 37 76 2.0 6.0 0.00 0.00 0.00 80 1015.6
20260502043009 38 101 1.0 3.0 0.00 0.00 0.00 79 1015.5
20260502041517 38 94 0.0 3.0 0.00 0.00 0.00 78 1015.4
20260502040012 38 94 0.0 3.0 0.00 0.00 0.00 78 1015.4
20260502034505 38 94 1.0 3.0 0.00 0.00 0.00 78 1015.2
20260502033003 38 94 1.0 3.0 0.00 0.00 0.00 78 1015.2
20260502031502 38 94 0.0 3.0 0.00 0.00 0.00 77 1015.0
20260502030000 38 94 1.0 4.0 0.00 0.00 0.00 76 1015.1
20260502024607 38 90 2.0 3.0 0.00 0.00 0.00 76 1015.2
20260502023100 38 91 1.0 7.0 0.00 0.00 0.00 75 1015.1
20260502021605 39 92 1.0 4.0 0.00 0.00 0.00 74 1015.1
20260502020056 40 82 1.0 9.0 0.00 0.00 0.00 74 1014.9
20260502014555 40 360 3.0 9.0 0.00 0.00 0.00 71 1014.8
20260502013053 41 360 7.0 14.0 0.00 0.00 0.00 68 1014.5
20260502011551 42 360 3.0 9.0 0.00 0.00 0.00 66 1014.3
20260502010057 41 360 2.0 4.0 0.00 0.00 0.00 70 1014.1
20260502004553 42 360 1.0 4.0 0.00 0.00 0.00 66 1013.9
20260502003048 42 360 2.0 5.0 0.00 0.00 0.00 67 1013.8
20260502001546 42 360 3.0 5.0 0.00 0.00 0.00 64 1013.8
20260502000045 43 360 4.0 9.0 0.00 0.00 0.00 64 1013.7
20260501234546 43 360 3.0 9.0 0.00 0.00 0.00 64 1013.7
20260501233043 43 360 2.0 10.0 0.00 0.00 0.00 64 1013.6
20260501231543 44 360 5.0 9.0 0.00 0.00 0.00 63 1013.5
20260501230056 44 360 5.0 12.0 0.00 0.00 0.00 63 1013.5
20260501224541 44 360 8.0 12.0 0.00 0.00 0.00 61 1013.5
20260501223040 44 360 7.0 13.0 0.00 0.00 0.00 60 1013.5
20260501221540 45 360 3.0 12.0 0.00 0.00 0.00 60 1013.4
20260501220041 45 360 7.0 13.0 0.00 0.00 0.00 60 1013.3
20260501214549 45 360 3.0 10.0 0.00 0.00 0.00 60 1013.1
20260501213036 46 360 6.0 14.0 0.00 0.00 0.00 58 1013.0
20260501211539 46 360 8.0 12.0 0.00 0.00 0.00 59 1013.0
20260501210041 45 360 4.0 12.0 0.00 0.00 0.00 58 1012.8
20260501204557 45 360 5.0 11.0 0.00 0.00 0.00 57 1012.7
20260501203032 47 360 5.0 11.0 0.00 0.00 0.00 57 1012.7
20260501201532 46 360 4.0 12.0 0.00 0.00 0.00 56 1012.7
20260501200031 46 360 4.0 11.0 0.00 0.00 0.00 56 1012.7
20260501194532 46 360 7.0 13.0 0.00 0.00 0.00 57 1012.6
20260501193031 46 360 5.0 10.0 0.00 0.00 0.00 55 1012.6
20260501191528 46 360 4.0 14.0 0.00 0.00 0.00 59 1012.7
20260501190026 46 360 8.0 13.0 0.00 0.00 0.00 57 1012.5
20260501184527 46 360 7.0 11.0 0.00 0.00 0.00 59 1012.5
20260501183030 46 360 6.0 12.0 0.00 0.00 0.00 58 1012.3
20260501181530 46 360 8.0 11.0 0.00 0.00 0.00 57 1012.3
20260501180033 46 360 6.0 12.0 0.00 0.00 0.00 59 1012.2
20260501174537 45 360 4.0 14.0 0.00 0.00 0.00 60 1012.4
20260501173024 45 360 2.0 10.0 0.00 0.00 0.00 59 1012.4